131  
ASUS41 KBOX 112310  
RWRBOX  
 
REGIONAL WEATHER ROUNDUP  
NATIONAL WEATHER SERVICE BOSTON/NORTON MA  
600 PM EST TUE DEC 11 2018  
 
NOTE: "FAIR" INDICATES FEW OR NO CLOUDS BELOW 12,000 FEET WITH NO  
SIGNIFICANT WEATHER AND/OR S TO VISIBILITY
.  
 
MAZALL-120000-  
EASTERN MASSACHUSETTS  
 
CITY SKY/WX TMP DP RH WIND PRES REMARKS
 
BOSTON FAIR 33 20 58 S9 29.98S WCI 25  
BEVERLY FAIR 26 15 63 CALM 29.97S  
LAWRENCE FAIR 30 15 53 CALM 29.99S  
BEDFORD FAIR 26 15 63 CALM 29.97R  
BLUE HILL N/A 30 17 58 S9 29.94S WCI 22  
NORWOOD MOCLDY 30 21 69 CALM 29.99R  
MARSHFIELD FAIR 27 19 74 CALM 29.99R  
PLYMOUTH CLOUDY 30 21 69 CALM 29.99R  
TAUNTON CLOUDY 32 23 69 CALM 29.98S  
NEW BEDFORD CLOUDY 32 22 66 CALM 29.98S  

 
 
MAZALL-120000-  
CAPE COD AND THE ISLANDS  
 
CITY SKY/WX TMP DP RH WIND PRES REMARKS
 
FALMOUTH CLOUDY 27 21 80 NE3 29.98F  
HYANNIS FAIR 27 23 85 CALM 29.96F  
CHATHAM FAIR 28 23 81 NW3 29.99F  
PROVINCETOWN CLOUDY 33 24 69 S3 30.00S  
NANTUCKET FAIR 29 22 75 NE5 29.97F WCI 24  
MARTHAS VNYRD FAIR 23 19 85 N5 29.97F WCI 17  

 
 
MAZALL-120000-  
CENTRAL AND WESTERN MASSACHUSETTS  
 
CITY SKY/WX TMP DP RH WIND PRES REMARKS
 
WORCESTER FAIR 28 16 60 W3 29.92S  
FITCHBURG CLOUDY 25 18 74 NW3 29.97S  
ORANGE MOCLDY 25 16 68 CALM 29.96S  
SPRINGFIELD PTCLDY 25 17 72 NE5 29.94F WCI 19  
WESTFIELD FAIR 26 16 65 N3 29.95F  
NORTH ADAMS CLOUDY 27 19 72 SW6 29.96S WCI 20  
PITTSFIELD CLOUDY 26 16 65 CALM 29.91R  

 
 
RIZALL-120000-  
RHODE ISLAND  
 
CITY SKY/WX TMP DP RH WIND PRES REMARKS
 
PROVIDENCE CLOUDY 34 25 69 CALM 29.98S  
NEWPORT CLOUDY 34 26 72 E3 29.97S  
BLOCK ISLAND CLOUDY 36 28 75 CALM 29.96F  
SMITHFIELD CLOUDY 30 21 69 SE3 29.96S  
WESTERLY MOCLDY 37 28 70 N3 29.97R  

 
 
CTZALL-120000-  
CONNECTICUT  
 
CITY SKY/WX TMP DP RH WIND PRES REMARKS
 
BRADLEY INTL FAIR 28 18 66 CALM 29.95F  
HARTFORD FAIR 28 22 78 CALM 29.96F  
BRIDGEPORT FAIR 32 25 75 CALM 29.97S  
DANBURY FAIR 27 20 75 CALM 29.95S  
GROTON FAIR 30 27 88 N3 29.97R  
NEW HAVEN PTCLDY 34 25 69 CALM 29.97S  
CHESTER MOCLDY 30 25 80 CALM 29.95S  
MERIDEN FAIR 27 21 78 CALM 29.96F  
WILLIMANTIC CLOUDY 30 24 78 CALM 29.97S  
OXFORD FAIR 31 23 72 CALM 29.93F  

 
 
MEZ002-015-021-024-NHZ003-005-008-011-012-014-VTZ005-008-120000-  
NORTHERN NEW ENGLAND  
 
CITY SKY/WX TMP DP RH WIND PRES REMARKS
 
PORTLAND ME FAIR 25 18 74 NW5 29.97F WCI 19  
BANGOR ME FAIR 20 10 65 N8 30.00F WCI 10  
CONCORD NH FAIR 23 14 68 CALM 29.96F  
MANCHESTER NH FAIR 27 15 61 CALM 29.95F  
NASHUA NH FAIR 24 19 81 NW3 29.97S  
PORTSMOUTH NH CLEAR 25 13 60 CALM 29.96S  
JAFFREY NH CLOUDY 26 20 77 CALM 29.92F  
KEENE NH CLOUDY 26 18 71 CALM 29.96S  
BURLINGTON VT CLOUDY 28 17 63 S6 29.96S WCI 22  
MT. WASHINGTON FOG 3 3 100 NW5 N/A VSB 1/16WCI -6  

 
 
NYZ052-076-120000-  
EASTERN NEW YORK  
 
CITY SKY/WX TMP DP RH WIND PRES REMARKS
 
ALBANY FLURRIES 29 17 61 NW6 30.00R WCI 23  
NEW YORK CITY FAIR 38 28 67 S10 29.96S WCI 31  

 
 
ANZALL-120000-  
MARINE OBSERVATIONS  
 
STATION/POSITION TIME TEMP WIND PRES VSBY WAVE
 
AIR SEA DIR/SP/G HT/PER  
(UTC) (F) (DEG/KT/KT) (MB) (MI) (FT/S)  
BOSTON BUOY NOT AVBL  
BUZZARDS BAY 2200 36 70/ 4/ 5 1015.5F  
NANTUCKET SOUND NOT AVBL  
MASS BAY-STELLWA 2204 35 45 180/ 6/ 8 1014.3R 1 7/8 2/11  
ISLE OF SHOALS 2200 34 260/ 9/ 11 1014.9F  
S OF BLOCK IS 2243 50 N/A 4/11  

 
   
.....................KEY......................
 
 
SKY/WX - SKY CONDITION/PRESENT WEATHER  
TMP - TEMPERATURE IN FAHRENHEIT  
DWPT - DEWPOINT IN FAHRENHEIT  
RH - RELATIVE HUMIDITY IN PERCENT  
WIND - DIRECTION AND SPEED IN MPH  
PRES - MEAN SEA LEVEL PRESSURE IN INCHES OF HG  
WCI - WIND CHILL INDEX  
VSB - VISIBILITY IN MILES  
HX - HEAT INDEX  
TC - TEMPERATURE IN CELSIUS  
VRB - VARIABLE WIND DIRECTION  
N/A - NOT AVAILABLE  
 
 
CLICK HERE TO GO TO PREVIOUS BULLETINS.

The Nexlab MA Page
The Nexlab RI Page
The Nexlab NH Page
The Nexlab CT Page Main Text Page